Погода в Королевском

Россия / Алтайский край     53°10′37″N   81°27′20″E
темп.,
°C
ветер,
м/с
пор.,
м/с
влажн.,
%
обл.,
%
осадки,
мм/ч
давл.,
гПа
погр.,
м
6 мая, чт
чт601:00+13вюв3854100 0.0 1011148
04:00+12вюв3359100 0.0 101042
07:00+11в3762100 0.0 1009124
10:00+16юв4650100 0.0 1007340
13:00+21ююз3539100 0.0 1006663
16:00+25ю3631100 0.0 1004445
19:00+25ю483376 0.0 1003321
22:00+21ююв493964 0.0 1002149
7 мая, пт
пт701:00+20зсз71544100 0.0 1004328
04:00+16сз51165100 0.0 1007404
07:00+14сз5965100 0.0 1010434
10:00+15сз5657100 0.0 1012578
13:00+18зсз783480 0.0 10131723
16:00+19зсз8930100 0.0 10142034
19:00+17зсз6832100 0.0 10161846
22:00+12ссз37440 0.0 1019156
8 мая, сб
сб801:00+9сз35493 0.0 102192
04:00+8сз33540 0.0 102243
07:00+8ссз22560 0.0 102325
10:00+14з23380 0.0 1023612
13:00+18з34310 0.0 10221312
16:00+20зсз45300 0.0 10201893
19:00+20сз45315 0.0 10201937
22:00+15зсз22440 0.0 102012
9 мая, вс
вс901:00+13сз11510 0.0 102010
04:00+12зсз1153100 0.0 102010
07:00+12с11555 0.0 102010
10:00+18св2341100 0.0 1020447
13:00+21всв3436100 0.0 10191735
16:00+22св553596 0.0 10181893
19:00+20св663599 0.0 10171653
22:00+15св71248100 0.0 1018483
10 мая, пн
пн1001:00+12всв6134973 0.0 1017412
04:00+11всв61351100 0.0 1016383
07:00+10всв61351100 0.0 1016512
10:00+12всв71244100 0.0 1015651
13:00+15св81135100 0.0 1013763
16:00+18св893086 0.0 10111170
19:00+16св7103799 0.0 10111109
22:00+13ссв61244100 0.0 1012510